When you browse on this site, cookies collect data to enhance your experience and personalize the content and advertising you see.
Visit our Privacy Policy to learn more. By continuing to use the site, you agree to this use of cookies and data.
  • în România
  • Lista ţărilor
  • Pe 7 zile
  • Temperatura apei
  • Meteo pe hartă
  • Widget-uri
  • user-avatar
    Intrare

    Meteo pe oră la Cumaná

    Astăzi, 23 Ianuarie, Joi

    Timp Temperatura Precipitaţii Vânt Presiune Umiditate
    00:00 +25°C° 0 mm 3 m/s 751 mmHg 89%
    01:00 +25°C° 0 mm 3 m/s 751 mmHg 89%
    02:00 +24°C° 0 mm 3 m/s 750 mmHg 91%
    03:00 +24°C° 0 mm 3 m/s 750 mmHg 90%
    04:00 +24°C° 0 mm 3 m/s 750 mmHg 89%
    05:00 +24°C° 0 mm 3 m/s 750 mmHg 87%
    06:00 +25°C° 0 mm 2 m/s 750 mmHg 81%
    07:00 +26°C° 0 mm 2 m/s 750 mmHg 75%
    08:00 +27°C° 0 mm 2 m/s 751 mmHg 70%
    09:00 +29°C° 0 mm 2 m/s 751 mmHg 65%
    10:00 +31°C° 0 mm 1 m/s 752 mmHg 59%
    11:00 +32°C° 0 mm 1 m/s 752 mmHg 54%
    12:00 +33°C° 0 mm 1 m/s 751 mmHg 54%
    13:00 +34°C° 0 mm 2 m/s 750 mmHg 54%
    14:00 +34°C° 0 mm 2 m/s 750 mmHg 54%
    15:00 +32°C° 0 mm 2 m/s 749 mmHg 61%
    16:00 +31°C° 0 mm 2 m/s 749 mmHg 67%
    17:00 +29°C° 0 mm 2 m/s 749 mmHg 74%
    18:00 +28°C° 0 mm 2 m/s 749 mmHg 81%
    19:00 +26°C° 0 mm 2 m/s 750 mmHg 89%
    20:00 +24°C° 0 mm 3 m/s 750 mmHg 97%
    21:00 +24°C° 0 mm 3 m/s 751 mmHg 96%
    22:00 +24°C° 0 mm 2 m/s 751 mmHg 95%
    23:00 +24°C° 0 mm 2 m/s 751 mmHg 94%

    Mâine, 24 Ianuarie, Vineri

    Timp Temperatura Precipitaţii Vânt Presiune Umiditate
    00:00 +24°C° 0 mm 2 m/s 751 mmHg 92%
    01:00 +24°C° 0 mm 2 m/s 751 mmHg 91%
    02:00 +24°C° 0 mm 2 m/s 751 mmHg 89%
    03:00 +24°C° 0 mm 2 m/s 751 mmHg 88%
    04:00 +23°C° 0 mm 2 m/s 751 mmHg 87%
    05:00 +23°C° 0 mm 2 m/s 751 mmHg 86%
    06:00 +24°C° 0 mm 2 m/s 751 mmHg 82%
    07:00 +25°C° 0 mm 1 m/s 752 mmHg 77%
    08:00 +26°C° 0 mm 1 m/s 752 mmHg 72%
    09:00 +29°C° 0 mm 1 m/s 752 mmHg 62%
    10:00 +31°C° 0 mm 1 m/s 753 mmHg 52%
    11:00 +33°C° 0 mm 1 m/s 753 mmHg 42%
    12:00 +34°C° 0 mm 2 m/s 752 mmHg 45%
    13:00 +34°C° 0 mm 3 m/s 751 mmHg 48%
    14:00 +34°C° 0 mm 3 m/s 751 mmHg 51%
    15:00 +31°C° 0 mm 3 m/s 750 mmHg 61%
    16:00 +30°C° 0 mm 2 m/s 750 mmHg 70%
    17:00 +28°C° 0 mm 2 m/s 750 mmHg 80%
    18:00 +27°C° 0 mm 2 m/s 750 mmHg 86%
    19:00 +26°C° 0 mm 2 m/s 751 mmHg 92%
    20:00 +24°C° 0 mm 2 m/s 751 mmHg 98%
    21:00 +24°C° 0 mm 2 m/s 751 mmHg 97%
    22:00 +24°C° 0 mm 2 m/s 752 mmHg 97%
    23:00 +24°C° 0 mm 2 m/s 752 mmHg 97%

    Poimâine, 25 Ianuarie, Sâmbătă

    Timp Temperatura Precipitaţii Vânt Presiune Umiditate
    00:00 +24°C° 0 mm 2 m/s 752 mmHg 95%
    01:00 +24°C° 0 mm 2 m/s 751 mmHg 94%
    02:00 +24°C° 0 mm 2 m/s 751 mmHg 93%
    03:00 +24°C° 0 mm 1 m/s 751 mmHg 90%
    04:00 +24°C° 0 mm 1 m/s 751 mmHg 87%
    05:00 +24°C° 0 mm 1 m/s 751 mmHg 84%
    06:00 +25°C° 0 mm 1 m/s 751 mmHg 81%
    07:00 +26°C° 0 mm 1 m/s 752 mmHg 77%
    08:00 +27°C° 0 mm 1 m/s 752 mmHg 73%
    09:00 +29°C° 0 mm 1 m/s 753 mmHg 67%
    10:00 +31°C° 0 mm 1 m/s 753 mmHg 60%
    11:00 +33°C° 0 mm 1 m/s 753 mmHg 54%
    12:00 +32°C° 0.1 mm 2 m/s 752 mmHg 60%
    13:00 +32°C° 0.1 mm 2 m/s 752 mmHg 67%
    14:00 +31°C° 0.1 mm 2 m/s 751 mmHg 73%
    15:00 +30°C° 0.3 mm 2 m/s 751 mmHg 78%
    16:00 +29°C° 0.3 mm 2 m/s 750 mmHg 84%
    17:00 +28°C° 0.3 mm 2 m/s 750 mmHg 89%
    18:00 +27°C° 0.1 mm 3 m/s 750 mmHg 91%
    19:00 +26°C° 0.1 mm 3 m/s 751 mmHg 94%
    20:00 +25°C° 0.1 mm 4 m/s 751 mmHg 97%
    21:00 +25°C° 0 mm 4 m/s 751 mmHg 96%
    22:00 +25°C° 0 mm 4 m/s 752 mmHg 94%
    23:00 +25°C° 0 mm 4 m/s 752 mmHg 93%

    26 Ianuarie, Duminică

    Timp Temperatura Precipitaţii Vânt Presiune Umiditate
    00:00 +24°C° 0 mm 3 m/s 752 mmHg 91%
    01:00 +24°C° 0 mm 3 m/s 751 mmHg 88%
    02:00 +24°C° 0 mm 3 m/s 751 mmHg 85%
    03:00 +22°C° 0 mm 3 m/s 751 mmHg 83%
    04:00 +22°C° 0 mm 3 m/s 751 mmHg 81%
    05:00 +22°C° 0 mm 3 m/s 751 mmHg 78%
    06:00 +24°C° 0 mm 3 m/s 751 mmHg 75%
    07:00 +26°C° 0 mm 3 m/s 752 mmHg 72%
    08:00 +27°C° 0 mm 2 m/s 752 mmHg 68%
    09:00 +29°C° 0 mm 2 m/s 753 mmHg 63%
    10:00 +30°C° 0 mm 2 m/s 753 mmHg 58%
    11:00 +32°C° 0 mm 2 m/s 753 mmHg 53%
    12:00 +32°C° 0 mm 2 m/s 753 mmHg 56%
    13:00 +33°C° 0 mm 3 m/s 752 mmHg 58%
    14:00 +33°C° 0 mm 3 m/s 751 mmHg 61%
    15:00 +31°C° 0 mm 3 m/s 751 mmHg 67%
    16:00 +30°C° 0 mm 4 m/s 751 mmHg 74%
    17:00 +29°C° 0 mm 4 m/s 750 mmHg 81%
    18:00 +28°C° 0 mm 4 m/s 751 mmHg 86%
    19:00 +27°C° 0 mm 4 m/s 751 mmHg 92%
    20:00 +25°C° 0 mm 4 m/s 751 mmHg 98%
    21:00 +25°C° 0 mm 4 m/s 752 mmHg 96%
    22:00 +25°C° 0 mm 4 m/s 752 mmHg 95%
    23:00 +23°C° 0 mm 4 m/s 752 mmHg 93%

    27 Ianuarie, Luni

    Timp Temperatura Precipitaţii Vânt Presiune Umiditate
    00:00 +23°C° 0 mm 4 m/s 752 mmHg 89%
    01:00 +22°C° 0 mm 4 m/s 751 mmHg 85%
    02:00 +22°C° 0 mm 4 m/s 751 mmHg 81%
    03:00 +22°C° 0 mm 4 m/s 751 mmHg 76%
    04:00 +22°C° 0 mm 3 m/s 751 mmHg 71%
    05:00 +21°C° 0 mm 3 m/s 751 mmHg 67%
    06:00 +22°C° 0 mm 3 m/s 752 mmHg 65%
    07:00 +24°C° 0 mm 3 m/s 752 mmHg 62%
    08:00 +25°C° 0 mm 3 m/s 753 mmHg 60%
    09:00 +27°C° 0 mm 3 m/s 753 mmHg 55%
    10:00 +30°C° 0 mm 3 m/s 753 mmHg 49%
    11:00 +33°C° 0 mm 3 m/s 753 mmHg 44%
    12:00 +33°C° 0 mm 3 m/s 753 mmHg 45%
    13:00 +34°C° 0 mm 3 m/s 752 mmHg 46%
    14:00 +34°C° 0 mm 3 m/s 751 mmHg 46%
    15:00 +33°C° 0 mm 3 m/s 751 mmHg 55%
    16:00 +31°C° 0 mm 3 m/s 750 mmHg 63%
    17:00 +29°C° 0 mm 4 m/s 750 mmHg 71%
    18:00 +28°C° 0 mm 4 m/s 750 mmHg 80%
    19:00 +26°C° 0 mm 4 m/s 751 mmHg 89%
    20:00 +25°C° 0 mm 4 m/s 751 mmHg 98%
    21:00 +25°C° 0 mm 4 m/s 752 mmHg 96%
    22:00 +25°C° 0 mm 4 m/s 752 mmHg 95%
    23:00 +23°C° 0 mm 4 m/s 752 mmHg 94%

    28 Ianuarie, Marţi

    Timp Temperatura Precipitaţii Vânt Presiune Umiditate
    00:00 +24°C° 0 mm 3 m/s 752 mmHg 93%
    01:00 +24°C° 0 mm 3 m/s 751 mmHg 91%
    02:00 +24°C° 0 mm 3 m/s 751 mmHg 89%
    03:00 +24°C° 0 mm 3 m/s 751 mmHg 87%
    04:00 +24°C° 0 mm 3 m/s 751 mmHg 84%
    05:00 +24°C° 0 mm 3 m/s 751 mmHg 82%
    06:00 +25°C° 0 mm 2 m/s 751 mmHg 78%
    07:00 +26°C° 0 mm 2 m/s 752 mmHg 74%
    08:00 +27°C° 0 mm 1 m/s 752 mmHg 70%
    09:00 +29°C° 0 mm 2 m/s 752 mmHg 61%
    10:00 +31°C° 0 mm 2 m/s 752 mmHg 52%
    11:00 +35°C° 0 mm 2 m/s 752 mmHg 42%
    12:00 +35°C° 0 mm 2 m/s 752 mmHg 46%
    13:00 +35°C° 0 mm 2 m/s 751 mmHg 50%
    14:00 +35°C° 0 mm 2 m/s 750 mmHg 54%
    15:00 +32°C° 0 mm 2 m/s 750 mmHg 61%
    16:00 +31°C° 0 mm 2 m/s 750 mmHg 68%
    17:00 +30°C° 0 mm 2 m/s 749 mmHg 76%
    18:00 +28°C° 0 mm 2 m/s 750 mmHg 83%
    19:00 +27°C° 0 mm 2 m/s 750 mmHg 90%
    20:00 +25°C° 0 mm 2 m/s 751 mmHg 97%
    21:00 +25°C° 0 mm 2 m/s 751 mmHg 96%
    22:00 +25°C° 0 mm 2 m/s 751 mmHg 96%
    23:00 +25°C° 0 mm 2 m/s 752 mmHg 95%
    Arată mai mult